Simultaneous Nadir Overpasses (SNOs) Predictions

Prediction of SNOs between GOES-17 and FY3D Satellite Orbit:

Table of predicted SNOs for the next 14.0 days since TLE Epoch: 11/2/2024
Index Date Time (GOES-17) GOES-17 Lat,Lon FY3D Lat,Lon Distance(km) Time Diff (sec)
1 11/02/2024 21:26:22 0.01,-104.68 0.96,-100.57 468.45 80
2 11/04/2024 09:48:16 0.01,-104.70 0.25,-105.82 127.85 80
3 11/05/2024 09:26:55 0.01,-104.69 -0.79,-101.29 387.98 80
4 11/06/2024 21:48:56 -0.01,-104.65 -0.44,-106.57 219.06 80
5 11/07/2024 21:32:54 -0.00,-104.64 0.56,-102.03 297.19 80
6 11/09/2024 09:54:47 0.01,-104.67 0.61,-107.28 298.79 80
7 11/10/2024 09:33:26 0.00,-104.66 -0.40,-102.75 217.26 80
8 11/11/2024 21:55:26 -0.01,-104.61 -0.78,-108.03 389.82 80
9 11/12/2024 21:39:25 -0.01,-104.61 0.25,-103.50 126.88 80
10 11/14/2024 10:01:17 0.02,-104.64 0.95,-108.74 467.69 80
11 11/15/2024 09:39:56 0.02,-104.63 -0.10,-104.21 48.66 80
